Location: Newark
(30.0333°N, 31.2167°E)
Time: 07:40:55
(UTC+00:00)

Tiros 1 despin weight - Pass Details

Date: 24 January 2020
Orbit: 594 x 642 km, 48.2° (Epoch: 18 February)

Event Time Altitude Azimuth Distance (km) Brightness Sun altitude
Rises 11:06:58 0° 294° (WNW) 2,875 ? 38.6°
Reaches altitude 10° 11:11:47 10° 339° (NNW) 1,988 ? 38.3°
Maximum altitude 11:12:16 10° 345° (NNW) 1,981 ? 38.3°
Drops below altitude 10° 11:12:44 10° 351° (N) 1,991 ? 38.2°
Sets 11:17:37 0° 36° (NE) 2,916 ? 37.9°
